Weather History for Omaha Offutt, NE

Change the Weather History Date:

Friday, June 7, 2013

  Actual Average Record
Temperature  
Mean Temperature 60 °F -  
Max Temperature 72 °F 77 °F 97 °F (2011)
Min Temperature 49 °F 59 °F 49 °F (2013)
Degree Days  
Heating Degree Days 4    
Growing Degree Days 10 (Base 50)    
Moisture  
Dew Point 51 °F    
Average Humidity 70    
Maximum Humidity 99    
Minimum Humidity 45    
Precipitation  
Precipitation 0.01 in - - ()
Sea Level Pressure  
Sea Level Pressure 29.99 in    
Wind  
Wind Speed 4 mph (ENE)    
Max Wind Speed 8 mph    
Max Gust Speed -    
Visibility 10 miles    
Events      
Averages and records for this station are not official NWS values.
T = Trace of Precipitation, MM = Missing Value Source: NWS Daily Summary

Daily Weather History Graph

Daily Weather History Graph

Search for Another Location

Airport:

Trip Planner

Search our weather history database for the weather conditions in past years. The results will help you decide how hot, cold, wet, or windy it might be!

Date:

Astronomy

Jun. 07, 2013 Rise Set
Actual Time 5:51 AM CDT 8:54 PM CDT
Civil Twilight 5:17 AM CDT 9:27 PM CDT
Nautical Twilight 4:35 AM CDT 10:10 PM CDT
Astronomical Twilight 3:45 AM CDT 11:00 PM CDT
Moon 5:15 AM CDT (6/7) 8:08 PM CDT (6/7)
Length of Visible Light 16h 09m
Length of Day
15h 02m
Waning Crescent, 1% of the Moon is Illuminated
Jun 7
Waning Crescent
Jun 8
New
Jun 16
First Quarter
Jun 23
Full
Jun 29
Last Quarter

Hourly Weather History & Observations

Time (CDT) Temp. Dew Point Humidity Pressure Visibility Wind Dir Wind Speed Gust Speed Precip Events Conditions
12:58 AM 55.8 °F 50.9 °F 84% 30.03 in 10.0 mi NNE 3.5 mph - N/A   Clear
1:58 AM 56.3 °F 51.8 °F 85% 30.01 in 10.0 mi NNE 4.6 mph - N/A   Partly Cloudy
2:58 AM 55.8 °F 50.9 °F 84% 30.01 in 10.0 mi NNE 3.5 mph - N/A   Clear
3:58 AM 49.5 °F 49.1 °F 99% 30.02 in 10.0 mi NNE 3.5 mph - N/A   Clear
4:58 AM 50.0 °F 49.6 °F 99% 30.03 in 10.0 mi Calm Calm - N/A   Partly Cloudy
5:58 AM 51.3 °F 50.9 °F 99% 30.04 in 10.0 mi West 3.5 mph - N/A   Mostly Cloudy
6:58 AM 52.9 °F 52.5 °F 99% 30.04 in 10.0 mi ENE 2.3 mph - 0.01 in   Clear
8:58 AM 59.4 °F 54.1 °F 83% 30.06 in 10.0 mi North 4.6 mph - N/A   Mostly Cloudy
11:58 AM 66.0 °F 52.7 °F 62% 30.04 in 10.0 mi North 5.8 mph - N/A   Scattered Clouds
12:58 PM 67.3 °F 52.7 °F 59% 30.02 in 10.0 mi Variable 1.2 mph - N/A   Scattered Clouds
1:58 PM 70.2 °F 52.3 °F 53% 30.00 in 10.0 mi ESE 3.5 mph - N/A   Partly Cloudy
2:58 PM 71.1 °F 51.1 °F 49% 29.99 in 10.0 mi Variable 1.2 mph - N/A   Partly Cloudy
3:58 PM 71.4 °F 52.2 °F 51% 29.97 in 10.0 mi Variable 1.2 mph - N/A   Scattered Clouds
4:58 PM 72.7 °F 51.6 °F 47% 29.96 in 10.0 mi Variable 3.5 mph - N/A   Clear
5:58 PM 72.1 °F 49.6 °F 45% 29.94 in 10.0 mi ENE 2.3 mph - N/A   Clear
6:58 PM 71.4 °F 51.6 °F 50% 29.92 in 10.0 mi ESE 5.8 mph - N/A   Clear
7:58 PM 68.7 °F 50.9 °F 53% 29.92 in 10.0 mi SE 6.9 mph - N/A   Clear
8:58 PM 64.0 °F 50.5 °F 61% 29.92 in 10.0 mi ESE 5.8 mph - N/A   Clear
9:58 PM 61.9 °F 51.3 °F 68% 29.92 in 10.0 mi East 6.9 mph - N/A   Clear
10:58 PM 60.1 °F 50.7 °F 71% 29.93 in 10.0 mi ESE 8.1 mph - N/A   Clear
11:58 PM 59.5 °F 51.6 °F 75% 29.92 in 10.0 mi SE 8.1 mph - N/A   Clear